Regional Weather Roundup
Issued by NWS Portland, ME

Home | Current Version | Previous Version | Text Only | Print | Product List | Glossary On
Versions: 1 2 3 4 5 6 7 8 9 10 11 12 13 14 15 16 17 18 19 20 21 22 23 24 25 26 27 28 29 30 31 32 33 34 35 36 37 38 39 40 41 42 43 44 45 46 47 48 49 50
000
ASUS41 KGYX 221310
RWRGYX
WEATHER ROUNDUP FOR MAINE AND NEW HAMPSHIRE
NATIONAL WEATHER SERVICE GRAY ME
900 AM EDT TUE JUL 22 2014

MEZ002-005-006-010-012-015-018-020-021-024-026-027-029-221400-
MAINE

CITY           SKY/WX    TMP DP  RH WIND       PRES   REMARKS
PORTLAND       SUNNY     71  62  73 S5        30.11F
SANFORD        SUNNY     75  61  60 SW3       30.12F
BAR HARBOR     SUNNY     68  64  88 S8        30.11S
WISCASSET      SUNNY     71  63  75 SW6       30.13F
ROCKLAND       SUNNY     70  63  78 SW9       30.10F
FRYEBURG       SUNNY     73  63  70 CALM      30.12F
LEWISTONAUBURN SUNNY     70  63  78 S3        30.11F
AUGUSTA        SUNNY     70  63  78 VRB3      30.11F
WATERVILLE     SUNNY     70  63  78 S5        30.06F
BANGOR         SUNNY     71  61  70 S6        30.09F
GREENVILLE       N/A     73  61  65 CALM      30.11R
MILLINOCKET    SUNNY     75  64  68 CALM      30.10R
HOULTON        SUNNY     74  62  66 SW8       30.07R
PRESQUE ISLE   SUNNY     75  59  57 SW5       30.08R
FRENCHVILLE    SUNNY     71  61  70 W8        30.06R
CARIBOU        SUNNY     74  63  68 SW7       30.06S
$$

NHZ002-005-008-009-011-012-014-221400-
NEW HAMPSHIRE

CITY           SKY/WX    TMP DP  RH WIND       PRES   REMARKS
PORTSMOUTH     MOSUNNY   71  63  75 VRB3      30.11F
ROCHESTER      SUNNY     72  62  71 CALM      30.12F
NASHUA         SUNNY     73  63  71 CALM      30.14F
MANCHESTER     MOSUNNY   72  62  71 NW3       30.12F
CONCORD        SUNNY     71  63  75 S3        30.13F
LACONIA        SUNNY     73  63  68 SW7       30.12F
PLYMOUTH       FAIR      69  62  80 CALM      30.13F
BERLIN         SUNNY     73  62  68 CALM      30.14F
WHITEFIELD     SUNNY     73  62  68 CALM      30.15F
JAFFREY        SUNNY     72  63  73 VRB5      30.17F
LEBANON        MOSUNNY   72  63  73 W3        30.14F
MT WASHINGTON  FOG       52  52 100 W26         N/A  VSB 0
$$

VTZ005-007-008-221400-
VERMONT

CITY           SKY/WX    TMP DP  RH WIND       PRES   REMARKS
ST JOHNSBURY     N/A     67  61  81 MISG      30.13S
MONTPELIER     SUNNY     71  63  75 CALM      30.18F
BURLINGTON     SUNNY     77  64  64 S15       30.12R
$$

MAZ007-012-024-CTZ003-RIZ002-NYZ038-NYZ072-221400-
SOUTHERN NEW ENGLAND AND NY

CITY           SKY/WX    TMP DP  RH WIND       PRES   REMARKS
BOSTON         MOSUNNY   75  64  68 W5        30.13F
WORCESTER      SUNNY     73  64  73 W6        30.17F
NANTUCKET      SUNNY     71  65  81 CALM      30.16F
PROVIDENCE     MOSUNNY   76  65  68 W7        30.15F
HARTFORD       MOSUNNY   74  64  71 S3        30.15S
ALBANY         SUNNY     75  66  73 S6        30.15F
NEW YORK CITY  MOSUNNY   79  64  60 CALM      30.17S
$$

ANZ081-ANZ082-ANZ150-NHZ014-MEZ023>029-221400-
COASTAL MARINE OBSERVATIONS

STATION/POSITION TIME  TEMP    WIND        PRES    WAVE
                       AIR SEA DIR/SP/G            HT/PER
                 (UTC) (F)     (DEG/KT/KT) (MB)    (FT/S)
MOUNT DESERT ROC 1300   58                 1020.0F
MATINICUS ROCK   1200          200/ 13/ 14 1019.9F
PORTLAND WX BUOY 1300   64 64  210/  8/ 10 1019.7F   2/ 7
WELLS            1300   68 59  150/  5/  5 1019.1F
ISLE OF SHOALS   1200   62     220/  7/  8 1020.1R
JEFFREYS LEDGE   1300      67                N/A     2/ 7
CASHES LEDGE BUO 1300   65 65  VRB 10/ 12  1019.7F   2/ 8
$$

.............KEY..............
   WCI - WIND CHILL
   TC  - TEMPERATURE IN CELSIUS
   VSB - VISIBILITY IN MILES
   HX  - HEAT INDEX
   FAIR- INDICATES FEW OR NO CLOUDS BELOW 12,000 FT, WITH NO
         SIGNIFICANT WEATHER AND/OR OBSTRUCTIONS TO VISIBILITY.




USA.gov is the U.S. government's official web portal to all federal, state and local government web resources and services.